Regional Weather Roundup
Issued by NWS Upton, NY

Home | Current Version | Previous Version | Text Only | Print | Product List | Glossary On
Versions: 1 2 3 4 5 6 7 8 9 10 11 12 13 14 15 16 17 18 19 20 21 22 23 24 25 26 27 28 29 30 31 32 33 34 35 36 37 38 39 40 41 42 43 44 45 46 47 48
000
ASUS41 KOKX 311404
RWROKX

REGIONAL WEATHER ROUNDUP
NATIONAL WEATHER SERVICE NEW YORK NY
1000 AM EDT MON AUG 31 2015

NOTE: "FAIR" INDICATES FEW OR NO CLOUDS BELOW 12,000 FEET WITH NO
SIGNIFICANT WEATHER AND/OR OBSTRUCTIONS TO VISIBILITY.

NYZ071-072-176-178-NJZ106-104-311500-
NEW YORK CITY METRO AREA


CITY           SKY/WX    TMP DP  RH WIND       PRES   REMARKS
CENTRAL PARK   CLOUDY    81  66  60 CALM      30.06S
LAGUARDIA APRT CLOUDY    80  67  64 CALM      30.03S
KENNEDY INTL   CLOUDY    79  69  71 SW13      30.05S
NEWARK/LIBERTY CLOUDY    81  68  64 W5        30.04S
BRNX BOT. GARD   N/A     79  66  65 SW2       30.06R
TETERBORO      CLOUDY    81  65  58 VRB3      30.02F
$$

NYZ177-179-078>081-311500-
LONG ISLAND NEW YORK

CITY           SKY/WX    TMP DP  RH WIND       PRES   REMARKS
FARMINGDALE    PTSUNNY   83  68  60 W8        30.03S
ISLIP          PTSUNNY   82  68  62 W9        30.01S
SHIRLEY        PTSUNNY   84  68  58 W10       30.03S
WESTHAMPTON    PTSUNNY   82  69  64 W9        30.04S
MONTAUK POINT    N/A     79  70  74 W8        30.02S
$$

NYZ052-065-067-311500-
HUDSON VALLEY

CITY           SKY/WX    TMP DP  RH WIND       PRES   REMARKS
WHITE PLAINS   CLOUDY    79  67  66 W6        30.04R
NEWBURGH       PTSUNNY   75  70  83 W9        30.05S
MONTGOMERY     CLOUDY    76  68  76 S6        30.04S
POUGHKEEPSIE   PTSUNNY   77  68  73 SW5       30.02S
ALBANY         MOSUNNY   75  66  73 SE3       30.01F
$$

NJZ001-105-106-008-010-013-015-019>022-104-311500-
NEW JERSEY

CITY           SKY/WX    TMP DP  RH WIND       PRES   REMARKS
NEWARK/LIBERTY CLOUDY    81  68  64 W5        30.04S
TETERBORO      CLOUDY    81  65  58 VRB3      30.02F
CALDWELL       CLOUDY    78  67  68 VRB3      30.04F
MORRISTOWN     CLOUDY    81  72  74 S5        30.05S
SOMERVILLE     CLOUDY    79  68  69 CALM      30.03S
SUSSEX         CLOUDY    74  69  85 CALM      30.06
ANDOVER          N/A     76  69  79 CALM      30.07S
TRENTON        CLOUDY    80  69  69 W6        30.06S
MILLVILLE      CLOUDY    79  69  71 W5        30.08S
ATLANTIC CITY  CLOUDY    80  67  64 W10       30.07S
WRIGHTSTOWN    CLOUDY    75  70  84 SW3       30.04S
TOMS RIVER     CLOUDY    77  70  78 W5        30.07S
BELMAR         PTSUNNY   79  64  61 W7        30.06S
$$

PAZ047>061-062-071-311500-
EASTERN PENNSYLVANIA

CITY           SKY/WX    TMP DP  RH WIND       PRES   REMARKS
PHILADELPHIA   CLOUDY    80  68  66 W8        30.07S
ALLENTOWN      PTSUNNY   78  67  68 SW5       30.07S
SCRANTON       PTSUNNY   75  67  76 SW5       30.08F
$$

CTZ002-004>006-009-010-012-RIZ004-006-007-MAZ004-011-015-311500-
SOUTHERN NEW ENGLAND
 IN CT

CITY           SKY/WX    TMP DP  RH WIND       PRES   REMARKS
BRADLEY INTL   PTSUNNY   76  69  79 S3        30.00S
HARTFORD       PTSUNNY   79  68  69 W6        30.00S
DANBURY        CLOUDY    77  66  68 SW3       30.05S
WTRBRY/OXFORD  PTSUNNY   75  64  69 NW5       30.06R
BRIDGEPORT     PTSUNNY   81  67  62 W10       30.01S
MERIDEN        PTSUNNY   82  66  58 NW6       30.01S
NEW HAVEN      PTSUNNY   78  68  71 VRB3      30.01F
CHESTER        NOT AVBL
GROTON         PTSUNNY   81  72  74 W8        30.00S
WILLIMANTIC    PTSUNNY   75  69  81 CALM      30.01S

 IN RI

CITY           SKY/WX    TMP DP  RH WIND       PRES   REMARKS
PROVIDENCE     PTSUNNY   81  68  64 W7        29.99S
BLOCK ISLAND   PTSUNNY   77  72  83 W10       30.02R
WESTERLY       PTSUNNY   80  71  74 SW9       30.00F

 IN MA

CITY           SKY/WX    TMP DP  RH WIND       PRES   REMARKS
BOSTON         MOSUNNY   81  64  56 W10       29.97S
WORCESTER      MOSUNNY   76  63  64 W8        30.02S
WESTFIELD      MOSUNNY   78  66  66 CALM      30.00F
PROVINCETOWN     N/A     77  66  69 W8        29.97S
NANTUCKET      PTSUNNY   77  70  79 W16       29.99S
$$

ANZ330-335-338-340-345-350-353-355-311500-
COASTAL MARINE OBSERVATIONS


STATION/POSITION TIME  SKY/WX   TEMP    WIND        PRES    VSBY  WAVE
                                AIR SEA DIR/SP/G                  HT/PER
                 (UTC)          (F)     (DEG/KT/KT) (MB)    (MI)  (FT/S)
NY HARB ENTRANCE 1250            76 76  240/ 10/ 12 1016.9          3/10
4S FIRE IS       NOT AVBL
20S FIRE ISLAND  1250            75 74  250/ 14/ 16 1016.9          4/10
GREAT SOUTH BAY  1330            76 77  250/ 12/ 16   N/A
23SW MTP         1350            74 72  250/ 16/ 19 1015.9          4/ 5
HUDSON CANYON    NOT AVBL
KINGS POINT      NOT AVBL
EXECUTION ROCKS  1300            81     220/  4/  6   N/A
CENTRAL LI SOUND NOT AVBL
EASTERN LI SOUND 1300            74 71  260/  6/  8   N/A
ROBBINS REEF     NOT AVBL
$$


>>>>>>>>>>>>>>>>>>>>>>>>>>>> KEY <<<<<<<<<<<<<<<<<<<<<<<<<<<
>                                                          <
>     SKY/WX - SKY CONDITION/PRESENT WEATHER               <
>     TMP    - TEMPERATURE IN FAHRENHEIT                   <
>     DP     - DEWPOINT IN FAHRENHEIT                      <
>     RH     - RELATIVE HUMIDITY IN PERCENT                <
>     WIND   - DIRECTION AND SPEED IN MPH                  <
>     PRES   - MEAN SEA LEVEL PRESSURE IN INCHES OF HG     <
>     WCI    - WIND CHILL INDEX                            <
>     VSB    - VISIBILITY IN MILES                         <
>     HX     - HEAT INDEX                                  <
>     TC     - TEMPERATURE IN CELSIUS                      <
>     VRB    - VARIABLE WIND DIRECTION                     <
>                                                          <
>>>>>>>>>>>>>>>>>>>>>>>>>>>> KEY <<<<<<<<<<<<<<<<<<<<<<<<<<<




USA.gov is the U.S. government's official web portal to all federal, state and local government web resources and services.